DW7530 Weather Reports


Display with metric or nautical units.
time (UTC)temp
F
wind
direction
speed
MPH
gust
MPH
rain 1hr
in
rain 24hr
in
rain mn
in
humidity
%
barometer
mb
20260507104551 46 311 0.0 3.0 0.00 0.57 0.22 92 1006.0
20260507103111 45 311 2.0 5.0 0.00 0.57 0.22 92 1005.6
20260507101543 45 311 3.0 5.0 0.00 0.57 0.22 92 1005.8
20260507100050 45 311 0.0 5.0 0.00 0.57 0.22 92 1005.4
20260507094538 45 311 3.0 5.0 0.00 0.57 0.22 92 1005.6
20260507093038 45 311 2.0 5.0 0.00 0.57 0.22 92 1005.3
20260507091539 45 311 3.0 5.0 0.00 0.57 0.22 92 1005.4
20260507090035 46 311 0.0 4.0 0.00 0.57 0.22 92 1006.1
20260507084541 46 311 1.0 5.0 0.00 0.57 0.22 92 1005.3
20260507083030 46 314 4.0 8.0 0.00 0.57 0.22 92 1005.2
20260507081529 46 321 2.0 6.0 0.00 0.57 0.22 92 1005.2
20260507080147 46 322 3.0 6.0 0.01 0.57 0.22 92 1005.1
20260507074526 46 328 3.0 6.0 0.01 0.57 0.22 92 1005.2
20260507073024 46 328 3.0 6.0 0.01 0.57 0.22 93 1004.8
20260507071526 47 316 3.0 6.0 0.01 0.57 0.22 93 1004.8
20260507070022 47 293 4.0 7.0 0.01 0.56 0.21 94 1004.8
20260507064519 47 310 3.0 6.0 0.04 0.56 0.21 94 1004.7
20260507063018 47 341 3.0 6.0 0.11 0.56 0.21 94 1004.6
20260507061516 47 324 4.0 7.0 0.19 0.56 0.21 95 1004.4
20260507060019 48 337 4.0 7.0 0.18 0.56 0.20 95 1004.3
20260507054511 49 317 4.0 8.0 0.14 0.52 0.16 95 1004.5
20260507053007 49 314 5.0 10.0 0.08 0.45 0.09 95 1005.0
20260507051504 51 335 6.0 9.0 0.02 0.38 0.02 95 1004.1
20260507050009 52 233 0.0 2.0 0.02 0.38 0.02 95 1003.8
20260507044606 52 237 0.0 4.0 0.02 0.38 0.02 95 1003.9
20260507043101 52 226 1.0 7.0 0.01 0.37 0.01 95 1003.9
20260507041605 52 217 4.0 10.0 0.00 0.36 0.00 95 1003.9
20260507040055 51 165 1.0 5.0 0.00 0.36 0.00 95 1004.0
20260507034557 51 162 0.0 4.0 0.00 0.36 0.36 95 1003.9
20260507033055 50 160 0.0 2.0 0.00 0.36 0.36 95 1004.0
20260507031552 50 161 0.0 4.0 0.01 0.36 0.36 95 1004.1
20260507030051 49 159 0.0 4.0 0.01 0.36 0.36 95 1004.2
20260507024553 49 160 0.0 5.0 0.02 0.36 0.36 95 1004.4
20260507023046 49 159 3.0 5.0 0.03 0.36 0.36 95 1004.7
20260507021543 49 156 2.0 5.0 0.02 0.35 0.35 95 1005.0
20260507020055 50 154 1.0 4.0 0.03 0.35 0.35 95 1005.2
20260507014556 50 154 1.0 3.0 0.02 0.34 0.34 95 1005.3
20260507013045 51 158 1.0 4.0 0.01 0.33 0.33 95 1005.6
20260507011542 51 156 0.0 4.0 0.01 0.33 0.33 95 1005.9
20260507010043 50 150 0.0 3.0 0.00 0.32 0.32 95 1006.0
20260507004534 50 160 1.0 4.0 0.01 0.32 0.32 95 1006.2
20260507003033 51 156 1.0 5.0 0.02 0.32 0.32 95 1006.4
20260507001552 51 152 3.0 6.0 0.03 0.32 0.32 95 1006.4
20260507000037 51 175 2.0 6.0 0.05 0.32 0.32 95 1006.5
20260506234536 51 173 1.0 4.0 0.06 0.31 0.31 94 1006.5
20260506233033 51 211 4.0 6.0 0.10 0.30 0.30 95 1006.8
20260506231533 50 139 0.0 6.0 0.12 0.28 0.28 94 1006.6
20260506230030 51 143 2.0 5.0 0.13 0.27 0.27 94 1006.5
20260506224529 50 135 2.0 7.0 0.14 0.25 0.25 94 1006.5
20260506223028 50 122 1.0 5.0 0.11 0.20 0.20 94 1007.1
20260506221527 51 135 1.0 5.0 0.10 0.17 0.17 94 1007.2
20260506220028 51 131 1.0 5.0 0.08 0.13 0.13 93 1007.2
20260506214525 51 129 1.0 4.0 0.07 0.11 0.11 93 1007.5
20260506213025 52 117 1.0 5.0 0.07 0.09 0.09 93 1007.6
20260506211537 54 224 3.0 8.0 0.07 0.07 0.07 93 1007.6
20260506210033 54 172 0.0 10.0 0.05 0.05 0.05 93 1008.1
20260506204526 53 156 1.0 5.0 0.04 0.04 0.04 93 1008.0
20260506203022 53 156 0.0 2.0 0.02 0.02 0.02 92 1007.8
20260506201527 52 146 1.0 3.0 0.00 0.00 0.00 91 1008.1
20260506200024 52 162 3.0 6.0 0.00 0.00 0.00 91 1008.0
20260506194521 52 135 2.0 5.0 0.00 0.00 0.00 90 1008.0
20260506193032 52 141 3.0 7.0 0.00 0.00 0.00 90 1008.1
20260506191519 52 129 2.0 6.0 0.00 0.00 0.00 90 1007.5
20260506190019 53 140 3.0 9.0 0.00 0.00 0.00 88 1008.3
20260506184517 54 157 3.0 8.0 0.00 0.00 0.00 89 1008.1
20260506183017 52 123 3.0 6.0 0.00 0.00 0.00 90 1008.3
20260506181533 52 138 3.0 7.0 0.00 0.00 0.00 89 1008.6
20260506180014 52 118 4.0 8.0 0.00 0.00 0.00 89 1008.7
20260506174512 53 114 3.0 8.0 0.00 0.00 0.00 88 1008.8
20260506173012 54 128 1.0 6.0 0.00 0.00 0.00 88 1009.0
20260506171515 54 129 0.0 4.0 0.00 0.00 0.00 89 1009.1
20260506170011 53 129 3.0 6.0 0.00 0.00 0.00 88 1009.2
20260506164511 53 125 0.0 6.0 0.00 0.00 0.00 89 1009.5
20260506163015 54 143 2.0 6.0 0.00 0.00 0.00 87 1009.8
20260506161508 54 139 3.0 7.0 0.00 0.00 0.00 88 1010.0
20260506160010 55 161 3.0 6.0 0.00 0.00 0.00 88 1010.1
20260506154508 54 164 2.0 6.0 0.00 0.00 0.00 88 1010.1
20260506153007 55 146 3.0 8.0 0.00 0.00 0.00 87 1009.8
20260506151508 55 136 3.0 7.0 0.00 0.00 0.00 87 1009.4
20260506150013 55 131 3.0 7.0 0.00 0.00 0.00 87 1009.6
20260506144505 54 135 3.0 5.0 0.00 0.00 0.00 89 1010.2
20260506143004 54 125 3.0 7.0 0.00 0.00 0.00 89 1010.4
20260506141503 53 143 5.0 8.0 0.00 0.00 0.00 89 1010.7
20260506134600 54 137 1.0 3.0 0.00 0.00 0.00 88 1010.2
20260506133126 53 138 1.0 7.0 0.00 0.00 0.00 89 1010.1
20260506131559 53 126 3.0 7.0 0.00 0.00 0.00 88 1010.1
20260506130122 53 136 3.0 6.0 0.00 0.00 0.00 89 1010.4
20260506124559 53 120 0.0 5.0 0.00 0.00 0.00 88 1010.4
20260506123058 55 104 2.0 5.0 0.00 0.00 0.00 86 1010.4
20260506121553 54 104 0.0 0.0 0.00 0.00 0.00 88 1010.7
20260506120050 53 104 0.0 2.0 0.00 0.00 0.00 89 1010.9
20260506114550 52 104 0.0 4.0 0.00 0.00 0.00 91 1011.0
20260506113045 51 104 0.0 4.0 0.00 0.00 0.00 91 1010.9
20260506111544 51 104 0.0 2.0 0.00 0.00 0.00 91 1011.0
20260506110044 50 104 0.0 2.0 0.00 0.00 0.00 92 1010.7